星链-6263 (STARLINK-6263 )
导读
STARLINK-6263是美国太空探索技术公司Starlink星链互联网卫星星座中的一员,于2023年5月14日发射入轨。星链计划旨在构建全球卫星互联网星座,为全球各地用户提供高速卫星互联网接入服务,该卫星服务于星链低轨卫星星座组网,支撑星座通信覆盖能力的扩展。
Basic Information
目录编号:
56549
目录名称:
STARLINK-6263
国际标识:
2023-065AY
轨道中心:
EARTH
卫星名称:
星链-6263
卫星全名:
星链-6263 (STARLINK-6263 )
卫星状态:
在轨 (已飞行1209 天)
发射日期:
2023-05-14 UTC
国别 :
美国
(US)
星等 :
--
Orbit Information
| 数据来源 | 国际轨道数据 | AOE轨道数据 |
| 星历时间 | 2026-09-03T22:43:40+0800 23小时前 查看轨道信息 | 2026-09-04T02:00:00+0800 19小时前 查看轨道信息 |
| 半长轴 | 6861.2km | 6861.23km |
| 偏心率 | 0.0001643 | 0.0001662 |
| 轨道倾角 | 43.005° | 43.004° |
| 近地点辐角 | 271.205° | 273.503° |
| 升交点赤经 | 298.733° | 297.965° |
| 平近点角 | 88.861° | 117.230° |
| 近地点 | 481.935km | 481.952km |
| 远地点 | 484.191km | 484.234km |
| 周期 | 94.267分钟 | 94.268分钟 |
| 每日圈数 | 15.275755 | 15.275656 |
Detailed Information
固有亮度:
5
最大亮度:
2.5
卫星平台:
Starlink v1.5
覆盖范围:
全球
运营商:
太空探索技术公司
运营商所在国:
美国
制造商(研发单位):
太空探索技术公司
制造商所在国:
美国
使用方式:
暂无
Satellite Introduction
星链(Starlink)计划是由太空探索技术公司(SpaceX)提出的一个巨型低轨卫星互联网星座项目,计划在2019年至2024年间在太空搭建由约1.2万颗卫星组成的“星链”网络,其中1584颗将部署在地球上空550千米处的近地轨道,并从2020年开始工作。该卫星仍在工作。
2D Orbit Map
3D Orbit Map
Orbit Altitude Analysis Chart
Orbit Inclination Analysis Chart
Orbit Comprehensive Analysis Chart
View Comprehensive ChartConjunction Data List
| Event ID | Objects | TCA | Miss Dist (km) | Collision Risk Probability | Collision Risk Index (CRI) | Action |
|---|---|---|---|---|---|---|
| CDM_260906-085504-394605-654921 |
JILIN-01-10
(43946)
STARLINK-6263
(56549) | 2026-09-06T 08:55:33+0000 |
1.813 km
极远距离 | 2.842017E-6 低风险 | 0.44 | |
| CDM_260906-192405-654906-358821 |
STARLINK-6263
(56549)
STARLINK-33651
(63588) | 2026-09-06T 19:24:17+0000 |
1.930 km
极远距离 | 2.105627E-6 低风险 | 0.41 |

